Location: Bezirk Weinfelden
(47.5657°N, 9.1070°E)
Time: 02:20:43
(UTC+00:00)

Daily predictions for brighter satellites

Satellite Brightness Start Highest point End
(mag) Time Altitude Azimuth Time Altitude Azimuth Time Altitude Azimuth
CENTAUR R/B 4.2 02:14:21 39° E 02:14:21 39° E 02:19:51 10° ESE
Lacrosse 5 4.4 02:52:48 17° E 02:52:48 17° E 02:54:48 10° ENE
Cosmos 2263 Rocket 3.8 03:01:26 31° ENE 03:01:26 31° ENE 03:04:47 10° NE
SJ 16-02 4.0 03:08:47 17° ENE 03:08:47 17° ENE 03:10:37 10° NE
CZ-4C R/B 4.2 03:25:49 15° SSE 03:28:25 22° ESE 03:32:40 10° ENE
BREEZE-M DEB (TANK) 4.3 03:30:34 81° NW 03:30:54 84° NNE 03:35:14 10° E
ATLAS 3B R/B 3.4 03:30:35 42° N 03:32:09 48° NE 03:39:01 10° ESE
Cosmos 1943 4.2 03:36:00 39° SSE 03:36:00 39° SSE 03:39:28 10° SSE
Lacrosse 4 Rocket 3.6 03:38:11 23° SE 03:38:11 23° SE 03:39:56 10° SE
Cosmos 2227 Rocket 4.4 03:57:13 13° N 03:57:13 13° N 03:58:02 10° N
Cosmos 923 Rocket 4.3 03:53:38 64° NE 03:54:00 66° ENE 03:59:17 10° SSE
ALOS 2.9 03:49:26 10° NNE 03:53:16 52° NE 03:53:16 52° NE
Cosmos 2344 4.5 03:53:01 29° NNW 03:58:35 69° NE 04:11:14 10° SE
NOSS 3-2 (C) 4.1 04:00:07 53° WSW 04:00:15 53° WSW 04:08:27 10° SSE
Cosmos 2227 4.4 04:01:36 58° N 04:01:36 58° N 04:06:16 10° NNE
USA 305 4.5 04:02:46 29° NNE 04:02:46 29° NNE 04:05:29 10° ENE
NOSS 3-4 (A) 3.3 04:00:50 62° SSW 04:01:53 84° SE 04:08:16 10° NE
NOSS 3-4 (C) 3.3 04:00:54 61° SSW 04:02:01 83° SE 04:08:24 10° NE
CENTAUR R/B 3.3 04:01:36 52° WSW 04:02:14 53° WSW 04:10:43 10° SSE
ARGOS Delta rocket 3.9 03:59:58 10° NNE 04:04:43 75° NNE 04:04:43 75° NNE
Meteor 1-31 Rocket 4.3 04:02:57 10° NNE 04:05:08 30° NE 04:05:08 30° NE
USA 306 4.3 04:10:52 31° NNE 04:10:52 31° NNE 04:13:58 10° ENE
Cosmos 158 Rocket 3.7 04:10:38 85° NNE 04:10:45 87° ENE 04:15:44 10° SSE
SL-4 R/B 3.1 04:15:03 36° NE 04:15:03 36° NE 04:17:35 10° ENE
Cosmos 1151 Rocket 3.9 04:17:01 39° S 04:17:01 39° S 04:19:44 10° S
Cosmos 1782 3.2 04:16:34 60° NE 04:16:53 62° E 04:20:52 10° SSE
SKYMED 2 4.0 04:13:21 10° SSE 04:17:37 61° ENE 04:19:24 33° N
Cosmos 1844 Rocket 4.1 04:12:45 10° S 04:17:55 38° ESE 04:23:08 10° NE
ATLAS 2AS CENTAUR R/B 3.0 04:15:31 19° SW 04:21:33 88° SE 04:29:27 10° NE
ERS-2 4.3 04:18:22 10° S 04:19:17 17° S 04:19:17 17° S
Cosmos 1680 Rocket 3.5 04:20:02 40° NNW 04:22:00 85° ENE 04:27:20 10° SSE
FALCON 9 DEB 4.3 04:24:40 38° E 04:24:40 38° E 04:26:57 10° ENE
Cosmos 2297 Rocket 4.4 04:30:30 10° NNW 04:30:30 10° NNW 04:30:50 10° N
ATLAS 5 CENTAUR R/B 3.5 04:31:19 22° N 04:31:19 22° N 04:32:28 10° NNE
Atlas Centaur 2 4.5 04:26:40 11° SSW 04:29:46 15° S 04:32:50 10° SSE
RESURS DK-1 3.2 04:28:00 10° S 04:32:01 50° ESE 04:36:04 10° NE
ATLAS CENTAUR R/B 1.5 04:32:06 55° NNE 04:32:33 60° NE 04:36:25 10° SE
CRYOSAT 2 4.2 04:27:51 10° S 04:32:43 87° W 04:37:38 10° N
Lacrosse 5 1.8 04:32:03 46° SW 04:33:35 90° E 04:38:40 10° NE
ADEOS 3.4 04:28:40 10° N 04:33:53 70° WNW 04:39:04 10° SSW
Cosmos 1328 Rocket 3.5 04:35:39 60° WSW 04:35:39 60° WSW 04:39:48 10° S
Meteor PRIRODA 4.5 04:32:22 10° NNE 04:36:03 51° E 04:39:41 10° S
ERBS 4.4 04:38:12 18° NNE 04:38:12 18° NNE 04:39:34 10° NE
H-2A R/B 4.4 04:36:16 10° NNE 04:39:54 36° E 04:43:30 10° SSE
Cosmos 2112 Rocket 3.9 04:38:53 28° NNW 04:41:46 78° WSW 04:47:06 10° SSE
Cosmos 2263 Rocket 2.7 04:43:11 38° WNW 04:43:27 38° NW 04:48:46 10° NNE
Gbstr 26 Del rocket 2.6 04:43:34 60° SW 04:43:45 61° SSW 04:47:35 10° SE
SJ 16-02 1.6 04:45:52 47° NW 04:45:52 47° NW 04:49:57 10° N
Meteor 1-26 Rocket 4.4 04:48:59 18° NNW 04:53:00 47° W 04:58:20 10° SSW
Cosmos 1898 Rocket 3.5 04:47:48 10° SSW 04:53:07 88° ESE 04:58:30 10° NNE
CZ-2C R/B 4.4 04:50:55 10° SE 04:55:38 31° ENE 05:00:17 10° N
FALCON 9 DEB 2.8 04:56:35 63° WSW 04:57:03 89° SSE 05:00:17 10° ENE
FALCON 9 DEB 2.8 04:56:45 65° WSW 04:57:10 87° NNW 05:00:24 10° ENE
FENGYUN 3A 4.0 04:53:38 10° N 04:58:39 40° WNW 05:03:38 10° SW
Envisat 4.2 04:54:16 10° NNE 04:59:08 44° E 05:03:58 10° S
Cosmos 1743 Rocket 3.6 04:56:03 10° S 05:00:30 82° E 05:05:01 10° N
Cosmos 1408 Rocket 3.7 04:58:12 10° SSW 05:02:33 52° WNW 05:06:55 10° N
H-2A R/B 4.1 04:59:02 10° NNE 05:02:33 33° E 05:06:01 10° SSE
Cosmos 2082 Rocket 4.3 04:59:37 10° N 05:03:47 20° NE 05:07:58 10° E
Cosmos 2181 Rocket 4.3 04:58:17 10° NNW 05:04:03 41° W 05:09:45 10° SSW
NOSS 7 (H) 4.4 05:01:45 11° SSW 05:05:02 69° SE 05:07:58 10° NE
COSMO-SKYMED 1 2.9 05:01:34 10° S 05:05:43 43° W 05:08:00 23° NW
USA 307 3.8 05:05:08 26° NW 05:06:51 37° N 05:10:53 10° ENE
Cosmos 1937 Rocket 3.4 05:05:03 10° SSW 05:10:12 90° W 05:15:26 10° NNE
USA 308 3.8 05:11:14 24° NW 05:13:14 38° N 05:17:17 10° E
Lacrosse 4 Rocket 3.2 05:14:33 16° WSW 05:14:33 16° WSW 05:16:41 10° SSW
Cosmos 1833 Rocket 4.1 05:09:23 10° NNW 05:14:31 34° NE 05:19:35 10° ESE
Meteor 2-3 Rocket 4.2 05:09:31 10° SW 05:14:47 37° WNW 05:20:08 10° N
MOS 1 Rocket 3.4 05:11:14 10° SSE 05:16:03 85° WSW 05:21:14 10° NNW
CZ-4C R/B 2.1 05:11:10 10° SW 05:16:11 66° NW 05:22:16 10° NE
Cosmos 2154 Rocket 4.1 05:10:07 10° S 05:16:21 85° E 05:22:39 10° N
CZ-4B R/B 3.2 05:13:01 10° N 05:17:24 52° WNW 05:21:40 10° SSW
Meteor 1-27 Rocket 4.2 05:12:52 10° N 05:18:38 68° ENE 05:24:28 10° SSE
Cosmos 1689 Rocket 3.2 05:16:13 10° SSW 05:18:12 26° WSW 05:18:12 26° WSW
Cosmos 1805 Rocket 4.0 05:15:18 10° S 05:19:42 66° E 05:24:08 10° NNE
FALCON 9 DEB 2.9 05:18:33 31° W 05:19:55 65° NNW 05:23:08 10° ENE
Meteor 1-10 Rocket 4.1 05:15:05 10° NNW 05:20:39 76° W 05:26:15 10° S
ATLAS 3B R/B 3.0 05:17:51 18° NW 05:22:57 50° WSW 05:29:50 10° SSE
Aureole 2 Rocket 1.7 05:21:34 10° SSW 05:24:06 76° ESE 05:26:39 10° NNE
COSMOS 2406 4.1 05:19:10 10° NNW 05:24:44 47° NE 05:30:17 10° SE
Cosmos 1862 3.3 05:23:16 10° SSW 05:27:16 60° WNW 05:31:19 10° N
YAOGAN 6 2.6 05:24:40 10° NNE 05:28:12 78° ESE 05:31:41 10° S
Genesis I 3.2 05:25:07 10° SW 05:28:52 54° NW 05:32:40 10° NNE
ALOS 3.6 05:27:50 10° NNW 05:31:03 19° WNW 05:31:45 18° WNW
Cosmos 2278 Rocket 4.3 05:28:35 10° SSE 05:33:25 30° ESE 05:38:17 10° NE
Cosmos 2327 Rocket 4.4 05:29:44 10° SSW 05:35:48 69° W 05:41:54 10° N
Cosmos 990 Rocket 4.5 05:31:08 10° SW 05:36:01 38° WNW 05:40:57 10° N
PSLV R/B 3.7 05:33:09 10° N 05:37:01 66° WNW 05:40:46 10° SSW
Cosmos 2074 Rocket 4.2 05:31:23 10° SSW 05:37:19 46° WNW 05:43:17 10° N
Meteor 1-31 Rocket 4.3 05:38:22 10° NNW 05:40:29 16° WNW 05:40:29 16° WNW
USA 305 3.6 05:38:55 15° NW 05:42:12 45° NNE 05:46:21 10° E
BREEZE M DEB (TANK) 3.2 05:35:39 10° SW 05:42:32 52° SSE 05:45:10 10° E
Cosmos 405 Rocket 2.9 05:39:37 10° SSW 05:43:09 42° WNW 05:46:46 10° N
SL-24 DEB 4.3 05:38:31 10° S 05:43:15 70° W 05:48:04 10° N
Cosmos 1812 3.4 05:43:32 10° NNW 05:46:59 32° W 05:50:26 10° SSW
EO 1 Delta rocket 4.4 05:42:26 10° SSW 05:47:05 37° W 05:51:23 10° NNW
Cosmos 1295 Rocket 4.4 05:42:41 10° SSW 05:48:45 69° W 05:54:51 10° N
Cosmos 2228 Rocket 3.6 05:45:28 10° NNW 05:49:31 36° W 05:53:31 10° SSW
USA 306 3.5 05:47:01 13° NW 05:50:40 48° NNE 05:54:51 10° E
Cosmos 1633 Rocket 3.8 05:48:56 10° S 05:53:16 58° E 05:57:37 10° NNE
NOSS 3-4 (A) 4.3 05:48:19 10° W 05:53:32 31° NNW 05:59:16 10° NNE
NOSS 3-4 (C) 4.3 05:48:24 10° W 05:53:39 31° NNW 05:59:24 10° NNE
SL-4 R/B 2.2 05:50:37 13° WNW 05:53:54 50° N 05:57:25 10° E
USA 234 3.6 05:51:07 10° NE 05:57:40 72° SE 06:04:11 10° SW
Cosmos 1356 3.3 05:55:22 10° S 05:58:46 88° W 06:02:13 10° N
FALCON 9 DEB 3.6 05:56:58 11° W 05:59:53 39° NNW 06:02:56 10° NE
Cosmos 1844 Rocket 3.1 05:56:29 10° WSW 06:01:48 40° NW 06:07:09 10° NNE
FALCON 9 DEB 3.7 05:59:52 11° WNW 06:03:10 49° NNE 06:06:33 10° E
Cosmos 1707 Rocket 3.6 06:02:21 10° NNW 06:06:39 61° W 06:10:54 10° S
EXPRESS MD2 4.3 06:03:41 10° WNW 06:07:45 73° SSW 06:16:14 10° ESE
MOS 1-B 4.4 06:02:27 10° N 06:08:12 63° WNW 06:13:55 10° SSW
COSMOS 2455 2.8 06:03:52 10° SW 06:09:53 72° NW 06:15:57 10° NNE
RESURS DK-1 3.6 06:07:04 10° W 06:10:19 22° NW 06:13:35 10° N
ATLAS CENTAUR R/B 3.1 06:08:44 10° WNW 06:11:02 15° WSW 06:13:24 10° SSW
BREEZE-M (TANK) 3.9 06:05:14 10° SW 06:11:11 39° SSE 06:13:36 10° E
NOAA 6 4.2 06:06:23 10° N 06:11:20 50° WNW 06:16:15 10° SW
ATLAS 2AS CENTAUR R/B 3.6 06:06:15 10° W 06:13:29 36° NNW 06:20:30 10° NE
H-2A R/B 4.0 06:10:52 10° NNW 06:13:52 21° WNW 06:16:50 10° WSW
ERBS 4.3 06:11:46 10° NW 06:13:56 16° N 06:16:06 10° NE
Cosmos 1844 4.1 06:10:33 10° WSW 06:15:43 38° NW 06:20:57 10° NNE
CZ-4B DEB 4.5 06:11:14 10° N 06:16:27 47° WNW 06:21:38 10° SW
Lacrosse 5 2.7 06:12:25 10° W 06:17:03 34° NNW 06:21:42 10° NE
Meteor 1-25 Rocket 4.5 06:11:47 10° S 06:17:20 77° E 06:22:53 10° NNE
